Huntsville, AL

4:30 AM CDT on September 28, 2016 (GMT -0500)
Huntsville International

Weather History for KHSV - April, 2013

Change the Weather History Date:

Thursday, April 4, 2013

  Actual Average Record
Temperature  
Mean Temperature 46 °F 59 °F  
Max Temperature 47 °F 71 °F 89 °F (1969)
Min Temperature 45 °F 47 °F 26 °F (1944)
Degree Days  
Heating Degree Days 19 8  
Month to date heating degree days 56 32  
Since 1 July heating degree days 2864 2852  
Cooling Degree Days 0 1  
Month to date cooling degree days 0 4  
Year to date cooling degree days 6 18  
Moisture  
Dew Point 43 °F    
Average Humidity 90    
Maximum Humidity 93    
Minimum Humidity 86    
Precipitation  
Precipitation 0.45 in 0.14 in 3.30 in (1911)
Month to date precipitation 0.63 0.59  
Year to date precipitation 18.06 15.53  
Snow  
Snow 0.00 in - - ()
Month to date snowfall 0.0  
Since 1 July snowfall 0.7  
Snow Depth 0.00 in    
Sea Level Pressure  
Sea Level Pressure 30.03 in    
Wind  
Wind Speed 9 mph (East)    
Max Wind Speed 22 mph    
Max Gust Speed 28 mph    
Visibility 6 miles    
Events Rain    
T = Trace of Precipitation, MM = Missing Value Source: NWS Daily Summary

Daily Weather History Graph

Daily Weather History Graph

Search for Another Location

Airport or City:

Trip Planner

Search our weather history database for the weather conditions in past years. The results will help you decide how hot, cold, wet, or windy it might be!

Date:

Astronomy

Apr. 04, 2013 Rise Set
Actual Time 6:29 AM CDT 7:10 PM CDT
Civil Twilight 6:04 AM CDT 7:36 PM CDT
Nautical Twilight 5:34 AM CDT 8:06 PM CDT
Astronomical Twilight 5:03 AM CDT 8:37 PM CDT
Moon 2:42 AM CDT (4/4) 1:41 PM CDT (4/4)
Length of Visible Light 13h 32m
Length of Day
12h 41m
Waning Crescent, 33% of the Moon is Illuminated
Apr 4
Waning Crescent
Apr 10
New
Apr 18
First Quarter
Apr 25
Full
May 2
Last Quarter

Hourly Weather History & Observations

Time (CDT) Temp. Windchill Dew Point Humidity Pressure Visibility Wind Dir Wind Speed Gust Speed Precip Events Conditions
12:53 AM 46.9 °F - 43.0 °F 86% 30.12 in 9.0 mi ENE 5.8 mph - 0.03 in Rain Light Rain
1:53 AM 46.0 °F 41.4 °F 43.0 °F 89% 30.09 in 6.0 mi NE 9.2 mph - 0.02 in Rain Rain
2:53 AM 46.0 °F 42.5 °F 44.1 °F 93% 30.06 in 7.0 mi NE 6.9 mph - 0.04 in Rain Light Rain
3:04 AM 46.4 °F 43.5 °F 44.6 °F 93% 30.05 in 5.0 mi NE 5.8 mph - 0.01 in Rain Light Rain
3:53 AM 46.9 °F - 44.1 °F 90% 30.03 in 8.0 mi East 9.2 mph - 0.02 in Rain Light Rain
4:53 AM 46.9 °F - 44.1 °F 90% 30.02 in 6.0 mi East 12.7 mph - 0.03 in Rain Light Rain
5:29 AM 46.4 °F 40.4 °F 44.6 °F 93% 30.02 in 2.5 mi East 13.8 mph - 0.12 in Rain Rain
5:36 AM 46.4 °F 40.7 °F 44.6 °F 93% 30.02 in 4.0 mi East 12.7 mph - 0.13 in Rain Light Rain
5:53 AM 46.0 °F 40.6 °F 44.1 °F 93% 30.04 in 3.0 mi East 11.5 mph - 0.14 in Rain Light Rain
6:35 AM 46.4 °F 41.1 °F 44.6 °F 93% 30.03 in 2.5 mi East 11.5 mph - 0.04 in Rain Light Rain
6:53 AM 46.0 °F 39.9 °F 44.1 °F 93% 30.04 in 2.5 mi East 13.8 mph - 0.05 in Rain Light Rain
7:26 AM 46.4 °F 42.4 °F 44.6 °F 93% 30.04 in 2.0 mi East 8.1 mph - 0.07 in Rain Rain
7:53 AM 46.0 °F 39.9 °F 44.1 °F 93% 30.05 in 3.0 mi ESE 13.8 mph - 0.10 in Rain Light Rain
8:53 AM 46.0 °F 40.2 °F 44.1 °F 93% 30.04 in 3.0 mi ESE 12.7 mph - 0.01 in Rain Light Rain
9:00 AM 46.4 °F 39.5 °F 44.6 °F 93% 30.03 in 1.0 mi ESE 17.3 mph 23.0 mph 0.00 in Rain Light Rain
9:11 AM 46.4 °F 40.4 °F 44.6 °F 93% 30.04 in 1.0 mi ESE 13.8 mph - 0.00 in   Light Drizzle
9:34 AM 46.4 °F 40.1 °F 44.6 °F 93% 30.04 in 3.0 mi ESE 15.0 mph 18.4 mph 0.00 in   Light Drizzle
9:45 AM 46.4 °F 40.1 °F 42.8 °F 87% 30.04 in 3.0 mi East 15.0 mph - 0.00 in   Overcast
9:53 AM 46.0 °F 39.3 °F 43.0 °F 89% 30.04 in 7.0 mi East 16.1 mph 23.0 mph 0.00 in   Overcast
10:53 AM 46.9 °F - 42.1 °F 83% 30.06 in 6.0 mi ESE 15.0 mph 25.3 mph 0.00 in Rain Light Rain
11:02 AM 46.4 °F 39.5 °F 42.8 °F 87% 30.06 in 2.0 mi SE 17.3 mph - 0.00 in Rain Light Rain
11:20 AM 46.4 °F 41.1 °F 44.6 °F 93% 30.06 in 2.0 mi ESE 11.5 mph - 0.02 in Rain Light Rain
11:50 AM 46.4 °F 40.4 °F 44.6 °F 93% 30.05 in 3.0 mi ESE 13.8 mph - 0.03 in Rain Light Rain
11:53 AM 46.0 °F 40.2 °F 44.1 °F 93% 30.05 in 3.0 mi ESE 12.7 mph - 0.03 in Rain Light Rain
12:37 PM 46.4 °F 41.9 °F 44.6 °F 93% 30.04 in 8.0 mi ESE 9.2 mph - 0.00 in Rain Light Rain
12:53 PM 46.9 °F - 44.1 °F 90% 30.04 in 10.0 mi ESE 15.0 mph - 0.00 in   Overcast
1:31 PM 46.4 °F 40.7 °F 42.8 °F 87% 30.02 in 7.0 mi East 12.7 mph - N/A   Overcast
1:53 PM 46.0 °F 41.4 °F 44.1 °F 93% 30.01 in 2.0 mi East 9.2 mph - N/A   Overcast
2:19 PM 46.4 °F 41.1 °F 44.6 °F 93% 30.01 in 3.0 mi East 11.5 mph - 0.00 in Rain Light Rain
2:48 PM 46.4 °F 41.5 °F 44.6 °F 93% 30.01 in 2.0 mi East 10.4 mph - 0.00 in   Overcast
2:53 PM 46.0 °F 40.6 °F 44.1 °F 93% 30.01 in 2.0 mi East 11.5 mph - 0.00 in   Overcast
3:53 PM 45.0 °F 40.1 °F 43.0 °F 93% 29.99 in 2.0 mi East 9.2 mph - 0.00 in Rain Light Rain
4:14 PM 44.6 °F 39.2 °F 42.8 °F 93% 29.99 in 4.0 mi East 10.4 mph - 0.01 in Rain Light Rain
4:37 PM 44.6 °F 39.7 °F 42.8 °F 93% 29.99 in 10.0 mi East 9.2 mph - 0.01 in   Overcast
4:49 PM 44.6 °F 40.2 °F 42.8 °F 93% 29.99 in 10.0 mi East 8.1 mph - 0.01 in   Overcast
4:53 PM 45.0 °F 40.1 °F 43.0 °F 93% 29.99 in 10.0 mi East 9.2 mph - 0.01 in   Overcast
5:53 PM 45.0 °F 40.6 °F 42.1 °F 90% 30.00 in 4.0 mi East 8.1 mph - N/A   Overcast
6:35 PM 44.6 °F 40.7 °F 42.8 °F 93% 29.98 in 7.0 mi ESE 6.9 mph - N/A   Overcast
6:53 PM 45.0 °F 41.2 °F 42.1 °F 90% 29.98 in 10.0 mi East 6.9 mph - N/A   Overcast
7:37 PM 44.6 °F 41.4 °F 42.8 °F 93% 29.97 in 10.0 mi East 5.8 mph - N/A   Overcast
7:53 PM 45.0 °F 41.8 °F 42.1 °F 90% 29.98 in 10.0 mi East 5.8 mph - N/A   Overcast
8:11 PM 44.6 °F 43.1 °F 41.0 °F 87% 29.99 in 10.0 mi East 3.5 mph - N/A   Overcast
8:53 PM 45.0 °F 43.5 °F 42.1 °F 90% 30.00 in 10.0 mi NE 3.5 mph - N/A   Overcast
9:34 PM 46.4 °F 45.2 °F 42.8 °F 87% 30.01 in 10.0 mi ENE 3.5 mph - N/A   Overcast
9:53 PM 45.0 °F 42.6 °F 42.1 °F 90% 30.01 in 10.0 mi East 4.6 mph - N/A   Overcast
10:53 PM 45.0 °F - 43.0 °F 93% 30.01 in 10.0 mi Calm Calm - N/A   Overcast
11:09 PM 44.6 °F - 42.8 °F 93% 30.01 in 10.0 mi Calm Calm - N/A   Overcast
11:53 PM 45.0 °F - 43.0 °F 93% 30.01 in 10.0 mi Calm Calm - N/A   Overcast